Regional Weather Roundup
Issued by NWS

Home | Current Version | Previous Version | Text Only | Print | Product List | Glossary Off
Versions: 1 2 3 4 5 6 7 8 9 10 11 12 13 14 15 16 17 18 19 20 21 22 23 24 25 26 27 28 29 30 31 32 33 34 35 36 37 38 39 40 41 42 43 44 45 46 47 48 49 50

000
ASUS43 KFSD 291810
RWRSD

WEATHER ROUNDUP FOR SOUTH DAKOTA
NATIONAL WEATHER SERVICE SIOUX FALLS SD
100 PM CDT MON MAY 29 2017

NOTE: "FAIR" INDICATES FEW OR NO CLOUDS BELOW 12,000 FEET WITH NO
SIGNIFICANT WEATHER AND/OR OBSTRUCTIONS TO VISIBILITY.


SDZ001>005-009-010-012>017-291900-
NORTHWEST AND NORTH CENTRAL SOUTH DAKOTA

CITY           SKY/WX    TMP DP  RH WIND       PRES   REMARKS
BUFFALO          N/A     62  36  37 NW24G33   30.08S
FAITH            N/A     64  35  34 NW24G31   30.10S
MOBRIDGE       CLOUDY    64  38  38 NW21G29   30.02S
$$

SDZ012>016-024>037-041>051-057-063-072>074-291900-
SOUTHWEST AND SOUTH CENTRAL SOUTH DAKOTA

CITY           SKY/WX    TMP DP  RH WIND       PRES   REMARKS
RAPID CTY ARPT SUNNY     66  31  27 N23G32    30.15S
PIERRE         PTSUNNY   65  37  35 NW22G31   30.06S
CUSTER         SUNNY     59  13  16 N13G22    30.19S
ELLSWORTH AFB  SUNNY     64  31  28 NW21G30   30.14F
PHILIP         MOSUNNY   68  37  32 N22G29    30.11F
PINE RIDGE     MOSUNNY   64  41  42 MISG      30.17S
SPEARFISH      FAIR      61  32  33 NW15G26   30.18F
WINNER         FAIR      66  41  40 NW24G36   30.10R
$$

SDZ004>011-016>023-039-040-291900-
NORTHEAST SOUTH DAKOTA

CITY           SKY/WX    TMP DP  RH WIND       PRES   REMARKS
ABERDEEN       CLOUDY    58  41  53 N20       30.00R
WATERTOWN      CLOUDY    56  45  66 NW16G24   29.96R
BROOKINGS      LGT RAIN  53  49  86 NW12      29.98R
SISSETON         N/A     59  50  72 NW24G31   29.92S
$$

SDZ017-020-022-023-036>040-048>070-291900-
SOUTHEAST SOUTH DAKOTA

CITY           SKY/WX    TMP DP  RH WIND       PRES   REMARKS
SIOUX FALLS    PTSUNNY   60  46  59 NW22G31   29.99R
HURON          CLOUDY    60  43  53 NW18G25   30.02S
CHAMBERLAIN    CLOUDY    65  42  42 W18G24    30.07S
MITCHELL       PTSUNNY   65  43  44 NW25      30.04R
YANKTON        PTSUNNY   65  44  46 NW21G30   30.02S
$$

ABBREVIATIONS USED IN REMARKS
   TC - TEMPERATURE IN CELSIUS
  WCI - WIND CHILL INDEX
   HX - HEAT INDEX
  VSB - VISIBILITY




USA.gov is the U.S. government's official web portal to all federal, state and local government web resources and services.